Home   Weather   Ilulissat   Past weeks

Flag for Greenland Past Weather in Ilulissat, Greenland — Yesterday and Last 2 Weeks

Now
23 °F

Partly sunny.


Feels Like: 12 °F
Forecast: 4 / 31 °F
Wind: 12 mph from Northeast

Location: Jacobshavn Lufthavn

Current Time: Apr 29, 2017 at 5:39:27 pm

Latest Report: Apr 29, 2017 at 4:50 pm


Visibility: N/A

Pressure: 29.53 "Hg

Humidity: 50%

Dew Point: 7 °F

Location of IlulissatLocation

Past Weather in Ilulissat — Graph

°F

Ilulissat Temperature Yesterday

Maximum temperature yesterday: 16 °F (at 1:50 pm)
Minimum temperature yesterday: 3 °F (at 11:50 pm)
Average temperature yesterday: 12 °F

High & Low Weather Summary for the Past Weeks

 TemperatureHumidityPressure
High39 °F (Apr 17, 4:50 pm)100% (Apr 25, 5:50 am)30.45 "Hg (Apr 25, 5:50 am)
Low1 °F (Apr 16, 3:50 am)34% (Apr 15, 10:50 am)29.21 "Hg (Apr 17, 4:50 pm)
Average20 °F69%29.95 "Hg
* Reported Apr 14 3:50 pm — Apr 29 3:50 pm, Ilulissat, Weather by CustomWeather, © 2017

Note: Actual official high and low records may vary slightly from our data, if they occured in-between our weather recording intervals... More about our weather records

Advertising

Ilulissat Weather History for the Previous 24 Hours

Scroll right to see more
 ConditionsComfort  
Time TempWeatherWind HumidityBarometerVisibility
3:50 pm
Sat, Apr 29
21 °FPassing clouds.10 mph45%29.56 "HgN/A
2:50 pm21 °FPassing clouds.10 mph45%29.59 "HgN/A
1:50 pm19 °FPassing clouds.9 mph49%29.65 "HgN/A
12:50 pm19 °FPassing clouds.8 mph42%29.68 "HgN/A
11:50 am18 °FPassing clouds.7 mph45%29.74 "HgN/A
10:50 am18 °FPassing clouds.5 mph45%29.77 "HgN/A
9:50 am16 °FPassing clouds.6 mph45%29.80 "HgN/A
8:50 am14 °FSunny.1 mph52%29.86 "HgN/A
7:50 am14 °FSunny.1 mph48%29.89 "HgN/A
6:50 am10 °FCold.2 mph56%29.92 "HgN/A
5:50 am10 °FCold.5 mph61%29.95 "HgN/A
4:50 am3 °FFrigid.2 mph72%29.98 "HgN/A
3:50 am7 °FFrigid.2 mph61%30.01 "HgN/A
2:50 am7 °FFrigid.No wind72%30.04 "HgN/A
1:50 am7 °FFrigid.No wind72%30.07 "HgN/A
12:50 am3 °FFrigid.3 mph78%30.09 "HgN/A
11:50 pm
Fri, Apr 28
3 °FFrigid.1 mph78%30.09 "HgN/A
10:50 pm9 °FFrigid.6 mph66%30.09 "HgN/A
9:50 pm10 °FCold.6 mph67%30.09 "HgN/A
8:50 pm12 °FPassing clouds.6 mph62%30.09 "HgN/A
7:50 pm14 °FOvercast.7 mph57%30.09 "HgN/A
6:50 pm14 °FScattered clouds.6 mph62%30.09 "HgN/A
5:50 pm16 °FScattered clouds.5 mph57%30.09 "HgN/A
Weather by CustomWeather, © 2017

See weather overviewHow to use our weather pages